Location: Unspecified
(42.7170°S, 0.0000°E)
Time: 15:32:58
(UTC+00:00)

OTV 5 (USA 277) - Visible Passes

Search period start: 26 May 2019 00:00
Search period end: 05 June 2019 00:00
Orbit: 310 x 325 km, 54.5° (Epoch: 08 May)

Date Brightness Start Highest point End Pass type
(mag) Time Alt. Az. Time Alt. Az. Time Alt. Az.
27 May ? 18:35:51 10° NNW 18:36:20 14° NNW 18:36:20 14° NNW visible
28 May ? 18:50:13 10° NW 18:51:02 18° NW 18:51:02 18° NW visible
29 May ? 17:31:35 10° N 17:33:35 19° NE 17:34:43 15° E visible
29 May ? 19:05:13 10° W 19:05:38 13° W 19:05:38 13° W visible
30 May ? 17:45:30 10° NW 17:48:10 52° NE 17:49:15 29° ESE visible
31 May ? 18:00:13 10° WNW 18:02:54 51° SW 18:03:41 36° SSE visible
01 Jun ? 18:15:28 10° W 18:17:46 23° SSW 18:18:03 23° SSW visible
02 Jun ? 18:31:12 10° SW 18:32:22 14° SSW 18:32:22 14° SSW visible
03 Jun ? 17:10:21 10° W 17:12:52 33° SSW 17:15:26 10° SE visible
04 Jun ? 17:25:51 10° WSW 17:27:50 18° SSW 17:29:48 10° SSE visible
